[[{"header":{"parameterUnit":"m.s-1","parameterCategory":1,"la1":30.2992,"la2":30.254,"lo1":-89.0895,"lo2":-89.0443,"dy":0.0025,"dx":0.0025,"nx":19,"ny":19,"refTime":"2026-05-02T03:00:00:Z","depth":0,"parameterNumber":2,"parameterNumberName":"U-component_of_WINDS"},"data":[0,0,0,-3.3205,-3.3208,-3.3346,-3.3347,-3.3543,-3.3544,0,0,0,0,0,0,0,0,0,0,0,-3.3176,-3.3178,-3.3205,-3.3209,-3.3346,-3.3347,-3.3542,-3.3544,0,0,0,0,0,0,0,0,0,0,0,-3.3175,-3.3177,-3.3179,-3.3209,-3.3346,-3.3347,-3.3542,-3.3431,0,0,0,0,0,0,0,0,0,0,-3.3294,-3.3278,-3.3177,-3.3179,-3.321,-3.3346,-3.3347,-3.3425,-3.3438,-3.3488,0,-3.3536,0,-3.3543,-3.3559,-3.356,0,0,0,-3.32,-3.3268,-3.3294,-3.318,-3.3211,-3.3346,-3.3282,-3.3432,-3.3446,-3.3505,-3.3538,-3.3545,-3.3546,-3.356,-3.3561,-3.3878,-3.388,0,0,-3.3193,-3.3207,-3.3284,-3.3304,-3.3283,-3.3278,-3.3286,-3.344,-3.3478,-3.3539,-3.3549,-3.355,-3.3562,-3.3563,-3.3876,-3.3878,0,0,0,-3.3177,-3.3203,-3.3224,-3.3296,-3.332,-3.3282,-3.3292,-3.3471,-3.3477,-3.3551,-3.3552,-3.3563,-3.3565,-3.3874,-3.3877,-3.3984,0,0,0,-3.3172,-3.3193,-3.3222,-3.3232,-3.3317,-3.3397,-3.332,-3.3466,-3.3483,-3.3551,-3.3563,-3.3568,-3.3872,-3.3876,-3.3977,-3.4034,0,0,0,-3.3163,-3.3192,-3.3215,-3.3233,-3.3292,-3.3394,-3.3409,-3.347,-3.3484,-3.356,-3.3568,-3.3871,-3.3875,-3.397,-3.4023,-3.4123,0,0,0,-3.3159,-3.331,-3.3217,-3.3386,-3.3291,-3.3459,-3.3408,-3.3532,-3.3609,-3.3564,-3.3872,-3.3877,-3.3968,-3.4017,-3.4116,-3.4211,-3.4252,0,0,-3.3357,-3.3334,-3.3432,-3.3353,-3.3541,-3.3436,-3.364,-3.3698,-3.3691,-3.3816,-3.3824,-3.3979,-3.4022,-3.4121,-3.4468,-3.45,0,0,0,-3.35,-3.3571,-3.3617,-3.3691,-3.3737,-3.3782,-3.3805,-3.3826,-3.3931,-3.3758,-3.404,-3.4066,-3.4123,-3.4168,-3.4196,-3.4245,-3.3897,-3.3897,-3.3896,-3.3805,-3.3787,-3.3948,-3.3947,-3.4019,-3.4041,-3.4098,-3.413,-3.4092,-3.4159,-3.4197,-3.4409,-3.4462,-3.4483,-3.4534,-3.4243,-3.4244,-3.4244,-3.4244,-3.4097,-3.4196,-3.4139,-3.4275,-3.4256,-3.437,-3.4396,-3.4365,-3.4469,-3.4379,-3.4429,-3.4336,-3.4519,-3.4563,-3.4252,-3.4251,-3.425,-3.4249,-3.4249,-3.4298,-3.4342,-3.4363,-3.4466,-3.4548,-3.454,-3.4642,-3.462,-3.46,-3.4649,-3.4688,-3.4686,-3.4683,-3.4668,-3.4669,-3.4669,-3.467,-3.467,-3.4671,-3.45,-3.452,-3.4608,-3.4668,-3.4711,-3.4765,-3.4786,-3.4829,-3.487,-3.4846,-3.4846,-3.4803,-3.4538,-3.4474,-3.4682,-3.468,-3.4679,-3.4678,-3.4677,-3.4809,-3.4735,-3.4872,-3.4915,-3.4982,-3.5065,-3.5033,-3.512,-3.5152,-3.5203,-3.5147,-3.4954,-3.4929,-3.4908,-3.4855,-3.5149,-3.5149,-3.5149,-3.5149,-3.4981,-3.4964,-3.5099,-3.517,-3.5236,-3.522,-3.5376,-3.5393,-3.5398,-3.5417,-3.537,-3.5296,-3.5274,-3.5263,-3.5233,-3.5184,-3.5555,-3.5555,-3.5556,-3.5171,-3.5159,-3.5297,-3.53,-3.535,-3.5393,-3.5539,-3.5623,-3.5613,-3.5572,-3.5431,-3.5414,-3.5294,-3.5256,-3.5216,-3.5171,-3.5079,0,0]},{"header":{"parameterUnit":"m.s-1","parameterCategory":1,"la1":30.2992,"la2":30.254,"lo1":-89.0895,"lo2":-89.0443,"dy":0.0025,"dx":0.0025,"nx":19,"ny":19,"refTime":"2026-05-02T03:00:00:Z","depth":0,"parameterNumber":3,"parameterNumberName":"V-component_of_WINDS"},"data":[0,0,0,-8.3221,-8.3226,-8.341,-8.341,-8.3679,-8.3682,0,0,0,0,0,0,0,0,0,0,0,-8.319,-8.3193,-8.3221,-8.3226,-8.341,-8.3411,-8.3679,-8.3682,0,0,0,0,0,0,0,0,0,0,0,-8.3189,-8.3192,-8.3196,-8.3227,-8.341,-8.3411,-8.3678,-8.3526,0,0,0,0,0,0,0,0,0,0,-8.3341,-8.3338,-8.3192,-8.3196,-8.3228,-8.341,-8.3411,-8.3519,-8.3536,-8.3611,0,-8.3688,0,-8.369,-8.3703,-8.3704,0,0,0,-8.3207,-8.3323,-8.3352,-8.3196,-8.323,-8.341,-8.3322,-8.3528,-8.3548,-8.3635,-8.3692,-8.3701,-8.3694,-8.3705,-8.3706,-8.4213,-8.4216,0,0,-8.3197,-8.3236,-8.3338,-8.3366,-8.3344,-8.3316,-8.3328,-8.3539,-8.3602,-8.3692,-8.3706,-8.3699,-8.3707,-8.3709,-8.421,-8.4213,0,0,0,-8.3181,-8.3229,-8.3252,-8.3356,-8.3387,-8.3322,-8.3335,-8.3593,-8.3597,-8.3709,-8.3702,-8.3708,-8.3712,-8.4206,-8.4211,-8.4412,0,0,0,-8.3173,-8.322,-8.3248,-8.3274,-8.3384,-8.3493,-8.3385,-8.3583,-8.3605,-8.3701,-8.3709,-8.3715,-8.4202,-8.4209,-8.4399,-8.4501,0,0,0,-8.317,-8.3219,-8.3254,-8.3275,-8.3356,-8.3489,-8.3504,-8.3586,-8.3602,-8.3704,-8.3716,-8.42,-8.4207,-8.4387,-8.4481,-8.4647,0,0,0,-8.3177,-8.3428,-8.3258,-8.3535,-8.3355,-8.3612,-8.3503,-8.3691,-8.3802,-8.371,-8.4203,-8.421,-8.4383,-8.4469,-8.4635,-8.4796,-8.4866,0,0,-8.3515,-8.347,-8.363,-8.3483,-8.3782,-8.3581,-8.3906,-8.397,-8.3941,-8.4123,-8.4135,-8.4403,-8.448,-8.4644,-8.5242,-8.5299,0,0,0,-8.375,-8.3866,-8.3936,-8.4046,-8.4102,-8.4158,-8.4168,-8.4191,-8.4344,-8.4044,-8.4505,-8.455,-8.4645,-8.472,-8.4768,-8.4847,-8.4246,-8.4245,-8.4245,-8.4285,-8.4239,-8.45,-8.4476,-8.4583,-8.4591,-8.4673,-8.4704,-8.4623,-8.4733,-8.4788,-8.5157,-8.5246,-8.5282,-8.5365,-8.4867,-8.4867,-8.4868,-8.4869,-8.4778,-8.4935,-8.4824,-8.5038,-8.4986,-8.5163,-8.5179,-8.5116,-8.5273,-8.5111,-8.5193,-8.5023,-8.5345,-8.5415,-8.4883,-8.4881,-8.4879,-8.4877,-8.4876,-8.5125,-8.5193,-8.5218,-8.5372,-8.5495,-8.5459,-8.5616,-8.556,-8.5509,-8.559,-8.5642,-8.5638,-8.5629,-8.5618,-8.5619,-8.5621,-8.5622,-8.5623,-8.5623,-8.5477,-8.5499,-8.564,-8.5721,-8.5784,-8.586,-8.5869,-8.5928,-8.598,-8.5927,-8.5927,-8.5837,-8.5385,-8.5274,-8.5643,-8.564,-8.5637,-8.5635,-8.5634,-8.5998,-8.5871,-8.609,-8.6154,-8.6243,-8.6369,-8.6297,-8.6423,-8.6463,-8.6542,-8.6433,-8.6107,-8.6056,-8.6018,-8.5926,-8.6441,-8.6441,-8.6441,-8.6442,-8.6293,-8.6262,-8.6473,-8.6578,-8.6675,-8.6632,-8.6877,-8.6885,-8.6873,-8.6895,-8.6812,-8.6684,-8.6647,-8.6618,-8.6566,-8.648,-8.7125,-8.7125,-8.7126,-8.6612,-8.6587,-8.6809,-8.6799,-8.6865,-8.6923,-8.7152,-8.7274,-8.7234,-8.7152,-8.6911,-8.6882,-8.6675,-8.661,-8.6527,-8.6448,-8.6288,0,0]}]]